Time,TemperatureF,DewpointF,PressureIn,WindDirection,WindDirectionDegrees,WindSpeedMPH,WindSpeedGustMPH,Humidity,HourlyPrecipIn,Conditions,Clouds,dailyrainin,SoftwareType,DateUTC
2013-07-04 00:07:00,65.2,58.0,30.06,SSW,205,0.0,0.0,77,0.00,,,0.00,weatherlink.com 1.10,2013-07-04 04:07:00,
2013-07-04 00:23:00,65.3,58.0,30.06,SSW,205,0.0,0.0,77,0.00,,,0.00,weatherlink.com 1.10,2013-07-04 04:23:00,
2013-07-04 00:38:00,65.5,58.0,30.06,SSW,205,0.0,0.0,77,0.00,,,0.00,weatherlink.com 1.10,2013-07-04 04:38:00,
2013-07-04 00:53:00,65.6,58.0,30.07,SSW,204,0.0,0.0,77,0.00,,,0.00,weatherlink.com 1.10,2013-07-04 04:53:00,
2013-07-04 01:08:00,65.2,58.0,30.06,SSW,203,0.0,0.0,78,0.00,,,0.00,weatherlink.com 1.10,2013-07-04 05:08:00,
2013-07-04 01:23:00,64.7,57.0,30.06,SSW,205,0.0,0.0,77,0.00,,,0.00,weatherlink.com 1.10,2013-07-04 05:23:00,
2013-07-04 01:38:00,64.6,57.0,30.06,SSW,205,0.0,0.0,77,0.00,,,0.00,weatherlink.com 1.10,2013-07-04 05:38:00,
2013-07-04 01:53:00,64.1,57.0,30.06,SSW,204,0.0,0.0,77,0.00,,,0.00,weatherlink.com 1.10,2013-07-04 05:53:00,
2013-07-04 02:08:00,63.9,57.0,30.06,SSW,204,0.0,0.0,77,0.00,,,0.00,weatherlink.com 1.10,2013-07-04 06:08:00,
2013-07-04 02:23:00,63.7,56.0,30.06,SSW,204,0.0,0.0,77,0.00,,,0.00,weatherlink.com 1.10,2013-07-04 06:23:00,
2013-07-04 02:38:00,63.6,56.0,30.05,SSW,204,0.0,0.0,77,0.00,,,0.00,weatherlink.com 1.10,2013-07-04 06:38:00,
2013-07-04 02:53:00,63.8,56.0,30.05,SSW,204,0.0,0.0,77,0.00,,,0.00,weatherlink.com 1.10,2013-07-04 06:53:00,
2013-07-04 03:08:00,63.5,56.0,30.05,SSW,204,0.0,1.0,77,0.00,,,0.00,weatherlink.com 1.10,2013-07-04 07:08:00,
2013-07-04 03:23:00,63.2,56.0,30.05,SSW,204,0.0,0.0,77,0.00,,,0.00,weatherlink.com 1.10,2013-07-04 07:23:00,
2013-07-04 03:38:00,63.0,56.0,30.05,SSW,204,0.0,0.0,78,0.00,,,0.00,weatherlink.com 1.10,2013-07-04 07:38:00,
2013-07-04 03:53:00,63.3,56.0,30.05,SSW,204,0.0,0.0,78,0.00,,,0.00,weatherlink.com 1.10,2013-07-04 07:53:00,
2013-07-04 04:08:00,63.2,56.0,30.05,SSW,204,0.0,0.0,78,0.00,,,0.00,weatherlink.com 1.10,2013-07-04 08:08:00,
2013-07-04 04:23:00,63.0,56.0,30.05,SSW,204,0.0,0.0,78,0.00,,,0.00,weatherlink.com 1.10,2013-07-04 08:23:00,
2013-07-04 04:38:00,62.8,56.0,30.05,SSW,204,0.0,0.0,78,0.00,,,0.00,weatherlink.com 1.10,2013-07-04 08:38:00,
2013-07-04 04:53:00,63.0,56.0,30.05,SSW,204,0.0,0.0,78,0.00,,,0.00,weatherlink.com 1.10,2013-07-04 08:53:00,
2013-07-04 05:08:00,63.1,56.0,30.05,SSW,205,0.0,0.0,78,0.00,,,0.00,weatherlink.com 1.10,2013-07-04 09:08:00,
2013-07-04 05:23:00,63.2,56.0,30.05,SSW,204,0.0,0.0,78,0.00,,,0.00,weatherlink.com 1.10,2013-07-04 09:23:00,
2013-07-04 05:38:00,63.4,56.0,30.06,SSW,205,0.0,0.0,78,0.00,,,0.00,weatherlink.com 1.10,2013-07-04 09:38:00,
2013-07-04 05:53:00,63.5,57.0,30.07,WSW,242,0.0,1.0,78,0.00,,,0.00,weatherlink.com 1.10,2013-07-04 09:53:00,
2013-07-04 06:08:00,63.4,56.0,30.07,SSW,197,0.0,1.0,78,0.00,,,0.00,weatherlink.com 1.10,2013-07-04 10:08:00,
2013-07-04 06:23:00,63.2,56.0,30.08,SSW,197,0.0,1.0,78,0.00,,,0.00,weatherlink.com 1.10,2013-07-04 10:23:00,
2013-07-04 06:38:00,63.2,56.0,30.08,SSW,198,0.0,0.0,78,0.01,,,0.01,weatherlink.com 1.10,2013-07-04 10:38:00,
2013-07-04 06:53:00,63.5,57.0,30.08,SW,228,0.0,0.0,79,0.01,,,0.01,weatherlink.com 1.10,2013-07-04 10:53:00,
2013-07-04 07:08:00,63.9,57.0,30.09,SSE,165,0.0,2.0,79,0.01,,,0.01,weatherlink.com 1.10,2013-07-04 11:08:00,
2013-07-04 07:24:00,64.5,58.0,30.09,WSW,242,1.0,1.0,79,0.01,,,0.01,weatherlink.com 1.10,2013-07-04 11:24:00,
2013-07-04 07:38:00,65.0,58.0,30.08,SSW,210,0.0,1.0,78,0.00,,,0.01,weatherlink.com 1.10,2013-07-04 11:38:00,
2013-07-04 07:53:00,65.1,58.0,30.09,SW,235,0.0,2.0,78,0.00,,,0.01,weatherlink.com 1.10,2013-07-04 11:53:00,
2013-07-04 08:08:00,65.4,58.0,30.10,WSW,246,0.0,2.0,78,0.00,,,0.01,weatherlink.com 1.10,2013-07-04 12:08:00,
2013-07-04 08:23:00,65.3,59.0,30.10,WSW,253,5.0,5.0,79,0.00,,,0.01,weatherlink.com 1.10,2013-07-04 12:23:00,
2013-07-04 08:38:00,65.5,59.0,30.10,SW,225,3.0,6.0,80,0.00,,,0.01,weatherlink.com 1.10,2013-07-04 12:38:00,
2013-07-04 08:53:00,65.3,59.0,30.10,WSW,239,1.0,6.0,80,0.00,,,0.01,weatherlink.com 1.10,2013-07-04 12:53:00,
2013-07-04 09:08:00,66.4,60.0,30.10,South,174,0.0,3.0,80,0.00,,,0.01,weatherlink.com 1.10,2013-07-04 13:08:00,
2013-07-04 09:23:00,66.9,62.0,30.11,SW,234,4.0,5.0,83,0.00,,,0.01,weatherlink.com 1.10,2013-07-04 13:23:00,
2013-07-04 09:38:00,67.3,62.0,30.11,WNW,285,2.0,5.0,84,0.00,,,0.01,weatherlink.com 1.10,2013-07-04 13:38:00,
2013-07-04 09:54:00,68.3,63.0,30.11,WSW,248,0.0,7.0,84,0.00,,,0.01,weatherlink.com 1.10,2013-07-04 13:54:00,
2013-07-04 10:09:00,69.8,64.0,30.11,West,264,3.0,7.0,83,0.00,,,0.01,weatherlink.com 1.10,2013-07-04 14:09:00,
2013-07-04 10:24:00,70.2,65.0,30.11,SW,226,4.0,9.0,82,0.00,,,0.01,weatherlink.com 1.10,2013-07-04 14:24:00,
2013-07-04 10:39:00,71.6,64.0,30.10,SE,131,2.0,8.0,76,0.00,,,0.01,weatherlink.com 1.10,2013-07-04 14:39:00,
2013-07-04 10:54:00,72.4,64.0,30.10,West,271,5.0,10.0,74,0.00,,,0.01,weatherlink.com 1.10,2013-07-04 14:54:00,
2013-07-04 11:09:00,72.4,63.0,30.10,WNW,282,1.0,6.0,73,0.00,,,0.01,weatherlink.com 1.10,2013-07-04 15:09:00,
2013-07-04 11:24:00,72.4,63.0,30.10,West,271,2.0,7.0,73,0.00,,,0.01,weatherlink.com 1.10,2013-07-04 15:24:00,
2013-07-04 11:39:00,73.2,62.0,30.11,SW,222,3.0,8.0,68,0.00,,,0.01,weatherlink.com 1.10,2013-07-04 15:39:00,
2013-07-04 11:54:00,74.5,63.0,30.11,WSW,245,5.0,8.0,67,0.00,,,0.01,weatherlink.com 1.10,2013-07-04 15:54:00,
2013-07-04 12:09:00,75.5,62.0,30.10,WNW,291,4.0,5.0,63,0.00,,,0.01,weatherlink.com 1.10,2013-07-04 16:09:00,
2013-07-04 12:24:00,75.0,63.0,30.09,SSW,211,3.0,7.0,66,0.00,,,0.01,weatherlink.com 1.10,2013-07-04 16:24:00,
2013-07-04 12:39:00,75.3,61.0,30.10,WSW,246,4.0,8.0,61,0.00,,,0.01,weatherlink.com 1.10,2013-07-04 16:39:00,
2013-07-04 12:54:00,75.2,62.0,30.10,West,262,1.0,7.0,63,0.00,,,0.01,weatherlink.com 1.10,2013-07-04 16:54:00,
2013-07-04 13:09:00,76.1,61.0,30.10,WSW,252,3.0,9.0,59,0.00,,,0.01,weatherlink.com 1.10,2013-07-04 17:09:00,
2013-07-04 13:24:00,77.0,62.0,30.09,WNW,294,1.0,4.0,61,0.00,,,0.01,weatherlink.com 1.10,2013-07-04 17:24:00,
2013-07-04 13:39:00,78.3,61.0,30.09,NW,316,5.0,5.0,55,0.00,,,0.01,weatherlink.com 1.10,2013-07-04 17:39:00,
2013-07-04 13:54:00,77.7,60.0,30.09,West,275,3.0,7.0,55,0.00,,,0.01,weatherlink.com 1.10,2013-07-04 17:54:00,
2013-07-04 14:09:00,78.5,60.0,30.09,West,277,1.0,6.0,54,0.00,,,0.01,weatherlink.com 1.10,2013-07-04 18:09:00,
2013-07-04 14:24:00,78.1,61.0,30.09,SE,124,4.0,10.0,55,0.00,,,0.01,weatherlink.com 1.10,2013-07-04 18:24:00,
2013-07-04 14:39:00,78.0,60.0,30.09,WSW,240,1.0,9.0,55,0.00,,,0.01,weatherlink.com 1.10,2013-07-04 18:39:00,
2013-07-04 14:54:00,79.0,58.0,30.08,South,173,2.0,5.0,49,0.00,,,0.01,weatherlink.com 1.10,2013-07-04 18:54:00,
2013-07-04 15:09:00,78.7,59.0,30.07,WSW,250,3.0,5.0,51,0.00,,,0.01,weatherlink.com 1.10,2013-07-04 19:09:00,
2013-07-04 15:24:00,78.3,58.0,30.07,WNW,290,3.0,9.0,50,0.00,,,0.01,weatherlink.com 1.10,2013-07-04 19:24:00,
2013-07-04 15:39:00,78.4,58.0,30.07,West,281,4.0,9.0,50,0.00,,,0.01,weatherlink.com 1.10,2013-07-04 19:39:00,
2013-07-04 15:54:00,78.5,58.0,30.07,SE,138,1.0,7.0,50,0.00,,,0.01,weatherlink.com 1.10,2013-07-04 19:54:00,
2013-07-04 16:09:00,79.5,60.0,30.07,West,262,2.0,4.0,51,0.00,,,0.01,weatherlink.com 1.10,2013-07-04 20:09:00,
2013-07-04 16:24:00,78.8,60.0,30.06,SSW,200,2.0,6.0,52,0.00,,,0.01,weatherlink.com 1.10,2013-07-04 20:24:00,
2013-07-04 16:39:00,79.5,61.0,30.06,SSE,147,3.0,6.0,53,0.00,,,0.01,weatherlink.com 1.10,2013-07-04 20:39:00,
2013-07-04 16:54:00,79.5,62.0,30.06,West,270,3.0,5.0,55,0.00,,,0.01,weatherlink.com 1.10,2013-07-04 20:54:00,
2013-07-04 17:09:00,80.3,62.0,30.06,ESE,117,2.0,4.0,53,0.00,,,0.01,weatherlink.com 1.10,2013-07-04 21:09:00,
2013-07-04 17:24:00,79.8,62.0,30.06,WNW,298,3.0,8.0,55,0.00,,,0.01,weatherlink.com 1.10,2013-07-04 21:24:00,
2013-07-04 17:39:00,78.6,62.0,30.06,ENE,63,0.0,8.0,56,0.00,,,0.01,weatherlink.com 1.10,2013-07-04 21:39:00,
2013-07-04 17:54:00,78.5,62.0,30.06,South,191,0.0,6.0,57,0.00,,,0.01,weatherlink.com 1.10,2013-07-04 21:54:00,
2013-07-04 18:09:00,78.0,63.0,30.05,NW,311,2.0,5.0,61,0.00,,,0.01,weatherlink.com 1.10,2013-07-04 22:09:00,
2013-07-04 18:25:00,78.2,64.0,30.05,WSW,240,3.0,3.0,61,0.00,,,0.01,weatherlink.com 1.10,2013-07-04 22:25:00,
2013-07-04 18:40:00,77.6,63.0,30.05,SW,221,4.0,6.0,61,0.00,,,0.01,weatherlink.com 1.10,2013-07-04 22:40:00,
2013-07-04 18:55:00,77.4,64.0,30.05,WSW,246,3.0,7.0,63,0.00,,,0.01,weatherlink.com 1.10,2013-07-04 22:55:00,
2013-07-04 19:10:00,77.4,64.0,30.04,West,259,3.0,3.0,63,0.00,,,0.01,weatherlink.com 1.10,2013-07-04 23:10:00,
2013-07-04 19:25:00,77.6,64.0,30.05,WSW,255,0.0,2.0,64,0.00,,,0.01,weatherlink.com 1.10,2013-07-04 23:25:00,
2013-07-04 19:40:00,77.3,65.0,30.05,SW,235,1.0,4.0,65,0.00,,,0.01,weatherlink.com 1.10,2013-07-04 23:40:00,
2013-07-04 19:55:00,77.0,65.0,30.05,WSW,250,2.0,3.0,66,0.00,,,0.01,weatherlink.com 1.10,2013-07-04 23:55:00,
2013-07-04 20:10:00,77.0,65.0,30.05,WSW,239,0.0,3.0,67,0.00,,,0.01,weatherlink.com 1.10,2013-07-05 00:10:00,
2013-07-04 20:25:00,76.6,65.0,30.05,SSW,197,2.0,3.0,68,0.00,,,0.01,weatherlink.com 1.10,2013-07-05 00:25:00,
2013-07-04 20:40:00,76.1,65.0,30.05,South,184,0.0,1.0,68,0.00,,,0.01,weatherlink.com 1.10,2013-07-05 00:40:00,
2013-07-04 20:55:00,75.6,65.0,30.04,SE,143,0.0,0.0,69,0.00,,,0.01,weatherlink.com 1.10,2013-07-05 00:55:00,
2013-07-04 21:10:00,74.8,65.0,30.04,WSW,242,0.0,0.0,71,0.00,,,0.01,weatherlink.com 1.10,2013-07-05 01:10:00,
2013-07-04 21:25:00,74.1,65.0,30.05,WSW,239,0.0,0.0,73,0.00,,,0.01,weatherlink.com 1.10,2013-07-05 01:25:00,
2013-07-04 21:40:00,73.3,65.0,30.05,SW,232,0.0,0.0,75,0.00,,,0.01,weatherlink.com 1.10,2013-07-05 01:40:00,
2013-07-04 21:55:00,72.4,65.0,30.05,SW,232,0.0,0.0,78,0.00,,,0.01,weatherlink.com 1.10,2013-07-05 01:55:00,
2013-07-04 22:10:00,71.6,65.0,30.05,SW,232,0.0,0.0,79,0.00,,,0.01,weatherlink.com 1.10,2013-07-05 02:10:00,
2013-07-04 22:25:00,71.0,65.0,30.06,SW,232,0.0,0.0,81,0.00,,,0.01,weatherlink.com 1.10,2013-07-05 02:25:00,
2013-07-04 22:40:00,70.3,64.0,30.07,SW,231,0.0,0.0,81,0.00,,,0.01,weatherlink.com 1.10,2013-07-05 02:40:00,
2013-07-04 22:55:00,69.7,64.0,30.07,SW,229,0.0,0.0,82,0.00,,,0.01,weatherlink.com 1.10,2013-07-05 02:55:00,
2013-07-04 23:10:00,69.3,64.0,30.07,SW,229,0.0,0.0,82,0.00,,,0.01,weatherlink.com 1.10,2013-07-05 03:10:00,
2013-07-04 23:25:00,68.8,63.0,30.07,SW,229,0.0,0.0,82,0.00,,,0.01,weatherlink.com 1.10,2013-07-05 03:25:00,
2013-07-04 23:40:00,68.4,63.0,30.06,SW,229,0.0,0.0,82,0.00,,,0.01,weatherlink.com 1.10,2013-07-05 03:40:00,
2013-07-04 23:55:00,68.2,63.0,30.06,South,170,0.0,2.0,82,0.00,,,0.01,weatherlink.com 1.10,2013-07-05 03:55:00,